Regional Weather Roundup
Issued by NWS Charleston, SC

Current Version | Previous Version | Graphics & Text | Print | Product List | Glossary Off
Versions: 1 2 3 4 5 6 7 8 9 10 11 12 13 14 15 16 17 18 19 20 21 22 23 24 25 26 27 28 29 30 31 32 33 34 35 36 37 38 39 40 41 42 43 44 45 46 47 48 49 50

000
ASUS42 KCHS 050327
RWRCHS

REGIONAL WEATHER ROUNDUP
NATIONAL WEATHER SERVICE CHARLESTON SC
1000 PM EST SUN DEC 04 2016

NOTE: "FAIR" INDICATES FEW OR NO CLOUDS BELOW 12,000 FEET WITH NO
SIGNIFICANT WEATHER AND/OR OBSTRUCTIONS TO VISIBILITY.

NOT ALL STATIONS ARE QUALITY CONTROLLED. USE DATA WITH CAUTION...
ESPECIALLY DEWPOINT OBSERVATIONS.

SCZ027-030-031-034>040-042>050-050400-
...SOUTHEAST SOUTH CAROLINA...

CITY           SKY/WX    TMP DP  RH WIND       PRES   REMARKS
N CHARLESTON   CLOUDY    57  52  83 NE3       30.05F
WATERFRONT PRK   N/A     59  57  93 N5        30.04F
MOUNT PLEASANT CLOUDY    59  55  88 CALM      30.05S
JOHNS ISLAND   CLOUDY    61  57  88 CALM      30.04S
PINOPOLIS        N/A     52  46  82 E7        29.98F
MONCKS CORNER  CLOUDY    50  45  81 E3        30.04F
SUMMERVILLE    CLOUDY    52  46  82 CALM      30.05F
BEAUFORT MCAS  CLOUDY    59  55  87 NE5       30.03F
BEAUFORT ARPT  CLOUDY    59  57  94 E3        30.01F
HILTON HEAD IS CLOUDY    66  64  94 VRB6G13   30.03F
WALTERBORO     CLOUDY    54  52  94 E5        30.04F
ALLENDALE      LGT RAIN  50  48  93 VRB3      30.03S

...SOUTHERN MIDLANDS AND PEE DEE...

CITY           SKY/WX    TMP DP  RH WIND       PRES   REMARKS
GEORGETOWN     CLOUDY    59  55  88 CALM      30.06F
KINGSTREE      RAIN      45  43  93 CALM      30.07S
ORANGEBURG     LGT RAIN  46  44  93 VRB6      30.05F
BARNWELL       NOT AVBL
AIKEN          HVY RAIN  43  43 100 NE7       30.09F
MANNING        NOT AVBL
COLUMBIA       LGT RAIN  46  43  89 NE3       30.08S FOG
SUMTER         CLOUDY    45  43  93 NE6       30.05S
FLORENCE       LGT RAIN  45  44  97 NE6       30.08F FOG
MYRTLE BEACH   DRIZZLE   54  48  82 N7        30.09F
N MYRTLE BEACH LGT RAIN  51  50  96 NE7       30.06F

$$

GAZ063-065-086>088-099>101-113>116-118-119-134>141-150-050400-
...SOUTHEAST GEORGIA...

CITY           SKY/WX    TMP DP  RH WIND       PRES   REMARKS
SAVANNAH ARPT  CLOUDY    62  57  83 E5        30.02F
HUNTER AAF     CLOUDY    68  67  99 S8        29.99F
FORT STEWART   MOCLDY    62  59  88 CALM      29.99F
STATESBORO     CLOUDY    55  51  86 CALM      30.02F
SYLVANIA       LGT RAIN N/A N/A N/A CALM      30.04S
CLAXTON        MOCLDY    59  59  97 CALM      30.02S

...CSRA...CENTRAL AND FAR SOUTHEAST GEORGIA...

CITY           SKY/WX    TMP DP  RH WIND       PRES   REMARKS
THOMSON        CLOUDY    47  47 100 CALM      30.11S
AUGUSTA-BUSH   RAIN      48  46  93 NE3       30.05F FOG
AUGUSTA-DANIEL LGT RAIN  47  43  86 NE6       30.06F FOG
SWAINSBORO     LGT RAIN  50  46  87 CALM      30.04S
VIDALIA        DRIZZLE   59  59 100 NE3       30.02S
EASTMAN        RAIN      52  51  97 NE3       30.04F
HAZLEHURST     MOCLDY    64  62  93 E3        29.99S
ALMA           CLOUDY    65  63  93 CALM      30.00R
WAYCROSS       MOCLDY    69  67  94 S7        30.01R
JESUP          FAIR      68  66  94 S5        30.01R
BAXLEY         MOCLDY    63  63 100 CALM      30.00S
BRUNSWICK      CLOUDY    70  66  88 S10G17    30.02S
SAINT SIMONS   CLOUDY    67  64  90 S9        30.01F

$$

SCZ027-028-034-036>038-045-046-048>050-GAZ119-141-050400-
...LAKE AND SUPPLEMENTAL COASTAL OBSERVATIONS...

STATION/POSITION TIME  TEMP    WIND        PRES    WAVE   SWELL
                       AIR SEA DIR/SP/G            HT/PER HT/PER/DIR
                 (UTC) (F)     (DEG/KT/KT) (MB)    (FT/S) (FT/S/D)
WINYAH BAY       0245   60      60/  8     1018.0S
LAKE MURRAY      0230   45      40/  2/  5 1018.6S
ACE BASIN NERRS  0245   58      10/  1     1017.0S
FORT PULASKI     0300   68 61  170/  7/ 12 1016.6
SAPELO ISLAND    0300   67     170/ 10     1016.0

$$

ANZ835-935-AMZ111-154-330-350-352-354-370-450-454-472-050400-
...C-MAN AND BUOY OBSERVATIONS...

STATION/POSITION TIME  TEMP    WIND        PRES    WAVE   SWELL
                       AIR SEA DIR/SP/G            HT/PER HT/PER/DIR
                 (UTC) (F)     (DEG/KT/KT) (MB)    (FT/S) (FT/S/D)
BUOY 41004       0250   72 75  160/ 21/ 25 1016.9R   4/ 4   2/110/ 8
BUOY 41008       0250   68 65  150/ 12/ 14 1016.4F   4/ 5   2/ 70/ 8
FOLLY BEACH CMAN 0300   64     180/  4/  4 1017.8F
CAPERS NEARSHORE 0208   66 62  160/  8/ 12 1017.3F
FRIPP NEARSHORE  0308   66 62  150/ 10/ 12 1016.4F


STATION/POSITION TIME  TEMP    WIND        PRES    WAVE   SWELL
                       AIR SEA DIR/SP/G            HT/PER HT/PER/DIR
                 (UTC) (F)     (DEG/KT/KT) (MB)    (FT/S) (FT/S/D)
5E ST. MARYS GA  0300      65                N/A     4/ 5
FRYING PAN BUOY  0310   69 74  140/ 17/ 21 1018.1
BUOY 41025       0250   60 74  120/  4/  8 1020.8F   3/ 8   3/ 40/ 8
CAPE LOOKOUT NC  0300   57     100/ 14/ 17 1019.4F
BUOY 41002       0250   67 73  140/  8/ 12 1021.7F   4/ 8   3/ 8
BUOY 41010       NOT AVBL
ST AUGUSTINE FL  0300   69 68  180/ 11/ 12 1018.3R


$$




USA.gov is the U.S. government's official web portal to all federal, state and local government web resources and services.